Regional Weather Roundup
Issued by NWS Wakefield, VA

Home | Current Version | Previous Version | Text Only | Print | Product List | Glossary On
Versions: 1 2 3 4 5 6 7 8 9 10 11 12 13 14 15 16 17 18 19 20 21 22 23 24 25 26 27 28 29 30 31 32 33 34 35 36 37 38 39 40 41 42 43 44 45 46 47 48 49 50
367
ASUS41 KAKQ 200215
RWRAKQ

REGIONAL WEATHER ROUNDUP
NATIONAL WEATHER SERVICE WAKEFIELD VA
1000 PM EDT SAT AUG 19 2017

Note: "fair" indicates few or no clouds below 12,000 feet with no
significant weather and/or obstructions to visibility. * = Denotes
station may not report precipitation (e.g., rain,snow,etc.),
thunder or fog.

VAZ042-051-052>054-056-200300-
NORTHERN VIRGINIA

CITY           SKY/WX    TMP DP  RH WIND       PRES   REMARKS
WASH NATIONAL  PTCLDY    82  73  74 S5        29.94R
DULLES         TSTM      75  63  66 N12       30.00R
FORT BELVOIR   PTCLDY    74  71  91 CALM      29.95R
QUANTICO       CLEAR     78  75  90 NW7       29.95R
FREDERICKSBRG* CLEAR     75  72  89 CALM      29.94R
STAFFORD*      CLEAR     70  70 100 CALM      29.98R
WARRENTON      MOCLDY    74  58  58 NE9       29.97R
CULPEPER*      MOCLDY    74  62  65 NE3       29.97S
MANASSAS*      LGT RAIN  70  64  81 SW7       29.98R
LEESBURG*      TSTM      72  66  83 W6        30.00R
WINCHESTER     CLEAR     70  57  64 CALM      29.99R
FRONT ROYAL*   CLOUDY    66  64  94 SE5       29.97F
LURAY*         CLEAR     70  64  83 NE8       29.99R
$$

VAZ048-049-060>072-079>083-200300-
CENTRAL AND SOUTH CENTRAL VIRGINIA

CITY           SKY/WX    TMP DP  RH WIND       PRES   REMARKS
RICHMOND       CLEAR     76  72  87 CALM      29.95R
CHESTERFIELD*  FAIR      75  72  90 CALM      29.96R
PETERSBURG*    CLEAR     71  71 100 CALM      29.96R
HANOVER        CLEAR     74  70  87 CALM      29.96R
TAPPAHANNOCK*  CLEAR    N/A N/A N/A CALM      29.95R
QUINTON*       FAIR      74  74 100 CALM      29.94R
CHARLOTTSVILLE CLEAR     79  67  66 SW3       29.96R
GORDONSVILLE*  CLEAR     72  69  92 CALM      29.95S
ORANGE*        CLEAR     70  68  94 CALM      29.96R
LOUISA*        CLEAR     75  66  73 CALM      29.95S
BUMPASS*       FAIR      73  72  99 CALM      29.95R
FARMVILLE*     CLEAR     74  70  89 CALM      29.96R
CREWE*         FAIR      72  68  87 CALM      29.97R
FORT PICKETT*  FAIR     N/A N/A N/A CALM      29.97R
CHASE CITY*    FAIR      73  73 100 CALM      29.98R
CLARKSVILLE*   FAIR      72  72 100 CALM      29.97R
SOUTH HILL*    CLEAR     73  73 100 CALM      30.02R
LAWRENCEVILLE* FAIR      74  73  97 CALM      29.97R
EMPORIA*       CLEAR     72  72 100 CALM      29.98R FOG
$$

VAZ088>098-200300-
SOUTHEAST VIRGINIA

CITY           SKY/WX    TMP DP  RH WIND       PRES   REMARKS
NORFOLK        PTCLDY    80  70  71 S6        29.95R
VIRGINIA BEACH MOCLDY    78  72  81 S3        29.95R
NORFOLK NAVAL  CLOUDY    80  68  66 S5        29.96R
WEST POINT*    CLEAR     76  72  87 CALM      29.96R
SALUDA*        FAIR      73  73  98 CALM      29.95R
NEWPORT NEWS   CLEAR     75  69  81 CALM      29.95R
LANGLEY AFB    PTCLDY    75  71  87 S5        29.95R
FORT EUSTIS    CLEAR     77  71  80 SE3       29.93R
WILLIAMSBURG*  CLEAR     79  75  89 CALM      29.96R
HR EXEC AP*    FAIR      72  68  88 CALM      29.93S
FRANKLIN*      CLOUDY    76  72  88 CALM      29.96R
US460-WAKEFLD  CLEAR     75  75 100 CALM      29.96R
$$

VAZ020-022-025-037-045-200300-
WEST CENTRAL AND SOUTHWEST VIRGINIA

CITY           SKY/WX    TMP DP  RH WIND       PRES   REMARKS
STAUNTON*      PTCLDY    75  64  70 CALM      30.02R
WAYNESBORO*    CLEAR     73  65  74 SW5       30.01R
HOT SPRINGS VA MOCLDY    68  55  64 CALM      30.16R
LYNCHBURG      CLEAR     70  64  81 CALM      30.00R
DANVILLE       CLEAR     71  70  96 CALM      29.98R
SOUTH BOSTON*  FAIR      73  71  95 CALM      29.98R
MARTINSVILLE   CLEAR     69  68  96 CALM      30.03R FOG
ROANOKE        CLEAR     76  64  66 W3        30.03R
BLACKSBURG     CLEAR     70  66  85 CALM      30.10R
DUBLIN*        CLEAR     72  66  81 W3        30.09R
MARION*        CLEAR     68  60  77 W3        30.14R
HILLSVILLE*    CLEAR     73  60  63 CALM      30.11R
RICHLANDS*     FAIR      72  59  65 CALM      30.12R
WISE*          CLEAR     70  61  73 CALM      30.14R
ABINGDON*      CLEAR     71  68  90 CALM      30.09R
$$

MDZ021>025-VAZ099-100-200300-
SOUTHERN MARYLAND AND THE DELMARVA PENINSULA

CITY           SKY/WX    TMP DP  RH WIND       PRES   REMARKS
PATUXENT RIVER CLEAR     76  72  87 S5        29.93R
BAY BRIDGE APT CLEAR     81  72  74 SW6       29.93R
LEONARDTOWN    CLEAR     73  70  88 CALM      29.96R
DOVER          CLEAR     77  70  78 S7        29.94R
GEORGETOWN     CLEAR     78  70  76 SW3       29.94R
EASTON         NOT AVBL
CAMBRIDGE      CLEAR     75  72  88 CALM      29.94R
SALISBURY      CLEAR     75  71  87 CALM      29.94R
OCEAN CITY     PTCLDY    75  71  87 W5        29.94R
WALLOPS ISLAND PTCLDY    75  71  87 SW3       29.95R
ACCOMACK*      PTCLDY    73  72  95 CALM      29.95R
$$

NCZ012>017-030>032-200300-
NORTH CENTRAL AND EASTERN NORTH CAROLINA

CITY           SKY/WX    TMP DP  RH WIND       PRES   REMARKS
ROANOKE RAPIDS FAIR      73  72  94 CALM      29.96R
RALEIGH        PTCLDY    79  71  76 CALM      29.98R
ELIZABETH CITY CLOUDY    78  77  96 S6        29.96S
AHOSKIE*         N/A     75  75  99 CALM      29.96R
EDENTON*       CLOUDY    81  73  78 SW7       29.97R
CURRITUCK*     CLOUDY    78  73  86 CALM      29.97S
KILL DEVIL HLS CLOUDY    76  73  92 CALM      29.95R
MANTEO         CLOUDY    79  74  86 SW10      29.96F
CAPE HATTERAS  CLOUDY    80  78  94 SW7       29.96S
TARBORO*       NOT AVBL
GOLDSBORO      CLEAR     78  78 100 CALM      29.96R
WASHINGTON     CLOUDY    75  73  91 S3        29.98R
GREENVILLE     CLEAR     77  73  88 S3        29.99R
NEW BERN       CLEAR     75  75 100 CALM      29.99R
WILMINGTON     MOCLDY    77  75  93 CALM      29.98R
$$

VAZ048-200300-
ELSEWHERE

CITY           SKY/WX    TMP DP  RH WIND       PRES   REMARKS
HARRISBURG PA  PTCLDY    67  63  87 S7        29.96R
BALTIMORE      MOCLDY    75  62  64 NW17G30   29.97R
ANNAPOLIS      CLEAR     81  75  82 NW3       29.93R
ANDREWS AFB    CLEAR     75  69  82 S6        29.94R
PHILADELPHIA   PTCLDY    81  68  64 SW6       29.91R
HENDERSON NC   CLEAR     72  68  87 CALM      29.98R
GREENSBORO     PTCLDY    79  68  69 CALM      30.00R
ROCKY MOUNT    CLEAR     77  74  90 S5        29.97R
$$

VAZ100-200300-
MARINE

STATION/POSITION TIME  TEMP    WIND        PRES    WAVE   SWELL
                       AIR SEA DIR/SP/G            HT/PER HT/PER
                 (UTC) (F)     (DEG/KT/KT) (MB)    (FT/S) (FT/S)
BRANDYWINE LGT   0142   81     220/ 10/ 10 1013.6R
CAPE MAY NJ      0148   77 80  210/  3/  5 1012.7R
LEWES DE         0142   79 79  250/  5/  5 1013.1R
15NM E FENWICK I 0150   80 79  220/ 10/ 12 1013.9R   2/ 6   2/ 6
OCEAN-CITY-INLET 0142   78 77  290/  4/  6 1014.0R
WACHAPREAGUE VA  0142   79 85  250/  2/  4 1014.1R
THOMAS POINT MD  0200   81 81  250/  7/  8   N/A
GOOSES REEF MD   0200   82 80  210/  6/  8 1014.3    0
COVE POINT MD    0142   80     200/  5/  6 1014.3R
SOLOMONS ISLAND  0142   80 83  150/  3/  4   N/A
BISHOPS HEAD MD  0142   81 85  200/  6/  6 1013.9R
PINEY POINT MD   0142          210/  6/  7   N/A
POTOMAC MD       0200   81 82  210/ 10/ 12 1013.2
CAMBRIDGE MD     0142   78 84              1014.4R
LEWISETTA VA     0142   79 85  210/  7/  7 1013.6R
RAPPAHANNOCK LGT 0142          170/  5/  7 1014.6R
STINGRAY PT      0200   83 82  200/  8/  8 1014.4    0
YORK RVR RNG VA  0142   82     170/  7/  8 1014.3R
YORKTOWN VA      0142   80 83  180/  5/  6 1013.6R
JAMESTOWN VA     0200      85  180/  6/  6   N/A     0
DOMINION TERM VA 0142   82     160/  7/  7 1014.1R
KIPTOPEKE VA     0142      81  190/  8/  9   N/A
CHES BAY BRIDGE  0142   81 79  190/  7/  8 1013.9R
CAPE HENRY VA    0142   79     170/  6/  7   N/A
WILLOUBY STN VA  0142   81     140/  4/  8 1014.1R
S CRANEY ISL VA  0142   83     160/ 10/ 11 1013.8R
CAPE HENRY BUOY  0130      81                N/A     2/ 7
1ST LANDING BUOY 0200   80 80              1013.9    1
64NM E OF VA BCH 0150   78 79  160/  6/  8 1014.7R   3/ 6   3/ 6
DUCK PIER NC     0142   80 72  250/  6/  6 1014.2R
44100 DUCK FRF   0105      81                N/A     2/10
44056 DUCK FRF   0130      79                N/A     1/ 9
OREGON INLET NC  0142   79 82  240/  4/  7 1014.7R
HATTERAS NC      0142   79 81  200/  8/ 13 1013.9F
DIAMOND SHLS NC  0150   83 83  220/ 16/ 19 1014.7R   4/ 9   2/ 9
CAPE LOOKOUT NC  0200   80     210/  7/  8 1014.4R
$$




USA.gov is the U.S. government's official web portal to all federal, state and local government web resources and services.